{"data":{"norad_id":62490,"epoch":"2026-05-25T05:08:28.320288Z","epoch_age_seconds":67100,"freshness":"FRESH","line1":"1 62490U 25003D   26145.21421667  .00014240  00000+0  52585-3 0  9996","line2":"2 62490  42.9982 216.9186 0001505 280.4019  79.6663 15.27587270 78359","mean_motion":15.2758727,"eccentricity":0.0001505,"inclination_deg":42.9982,"raan_deg":216.9186,"arg_perigee_deg":280.4019,"mean_anomaly_deg":79.6663,"bstar":0.00052585,"rev_number":7835,"period_min":94.266300085101,"perigee_km":481.99472189938,"apogee_km":484.05993236185,"semimajor_km":6861.1643271306,"source":"CELESTRAK","updated_at":"2026-05-25T13:38:19.696721Z"}}